sat.trackr.live / text

‹ back to catalog

STARLINK-2503

NORAD 48151 · 2021-027BM

PAYLOAD ACTIVE UNKNOWN

§ Identity

Operator
Country
US
Launch date
2021-04-07
Launch site
AFETR
Launch vehicle
Mass (kg)
RCS (m²)

Purposes: comms

External: N2YO · Heavens-Above · Gunter

§ Orbital elements

Epoch: 2026-05-25T01:06:36.972000Z

Period
94.01 min
Inclination
53.1585°
Eccentricity
0.0001420
Mean motion
15.31702315 rev/d
Perigee alt
469.8 km
Apogee alt
471.7 km
Semi-major
6,848.9 km
B*
8.3692e-5
RAAN
157.5302°
Arg perigee
89.5821°
Mean anomaly
270.5343°
Rev number
28,438

§ Raw data

STARLINK-25031 48151U 21027BM  26145.04626125  .00002233  00000+0  83692-4 0  99962 48151  53.1585 157.5302 0001420  89.5821 270.5343 15.31702315284388

JSON: /api/v1/satellites/48151 · /tle

For live sub-satellite position, see the globe view (requires WebGL).

§ Visibility from observer

Set your observer location to see the next 7 days of passes ≥ 10°. The values pass through the URL so the page stays shareable.

No JS? Fill the form by hand. The geolocation button needs JavaScript.